Flag for Albania Weather past 2 weeks in Tirana, Albania

Now
68 °F

Broken clouds.


Feels Like: 68 °F
Forecast: 51 / 66 °F
Wind: 9 mph from North

Location: Tirana Airport

Current Time: Apr 27, 2015 at 5:46:43 PM

Latest Report: Apr 27, 2015 at 5:20 PM


Visibility: N/A

Pressure: 29.89 "Hg

Humidity: 46%

Dew point: 46 °F

Location of TiranaLocation

Historic Weather in Tirana — Graph

°F

Tirana temperature yesterday

Maximum temperature yesterday: 73 °F (at 3:50 PM)
Minimum temperature yesterday: 46 °F (at 3:20 AM)
Average temperature yesterday: 59 °F

Past Weeks' High & Low Weather Summary

 TemperatureHumidityPressure
High73 °F (Apr 15, 2:50 PM)94% (Apr 12, 10:20 PM)30.33 "Hg (Apr 12, 10:20 PM)
Low41 °F (Apr 21, 5:20 AM)19% (Apr 15, 2:20 PM)29.89 "Hg (Apr 18, 3:20 PM)
Average58 °F61%30.09 "Hg
* Reported Apr 12 4:20 PM — Apr 27 4:50 PM, Tirana, Weather by CustomWeather, © 2015

Note: Actual official high and low records may vary slightly from our data, if they occured in-between our weather recording intervals... More about our weather records

Advertising

Tirana weather history for previous 24 hours

 ConditionsComfort  
Time TempWeatherWind HumidityBarometerVisibility
4:50 PM
Mon, Apr 27
70 °FBroken clouds.9 mph43%29.89 "HgN/A
4:20 PM68 °FBroken clouds.6 mph43%29.89 "HgN/A
3:50 PM70 °FBroken clouds.5 mph40%29.89 "HgN/A
3:20 PM70 °FBroken clouds.7 mph46%29.92 "HgN/A
2:50 PM70 °FBroken clouds.3 mph43%29.95 "HgN/A
2:20 PM68 °FBroken clouds.3 mph46%29.95 "HgN/A
1:50 PM70 °FBroken clouds.5 mph43%29.95 "HgN/A
1:20 PM68 °FBroken clouds.6 mph46%29.98 "HgN/A
12:50 PM68 °FBroken clouds.8 mph46%29.98 "HgN/A
12:20 PM68 °FLight rain. Broken clouds.8 mph49%29.98 "HgN/A
11:50 AM72 °FPartly sunny.3 mph36%29.95 "HgN/A
11:20 AM68 °FBroken clouds.3 mph38%29.95 "HgN/A
10:50 AM70 °FBroken clouds.2 mph35%29.95 "HgN/A
10:20 AM72 °FScattered clouds.No wind36%29.95 "HgN/A
9:50 AM70 °FBroken clouds.2 mph38%29.95 "HgN/A
9:20 AM68 °FScattered clouds.3 mph38%29.95 "HgN/A
8:50 AM64 °FSunny.5 mph43%29.95 "Hg10 mi
8:20 AM61 °FPassing clouds.5 mph55%29.98 "HgN/A
7:50 AM57 °FSunny.6 mph67%29.98 "Hg10 mi
7:20 AM52 °FSunny.5 mph77%29.98 "Hg10 mi
6:50 AM48 °FScattered clouds.3 mph82%29.98 "HgN/A
6:20 AM46 °FPassing clouds.3 mph82%29.98 "HgN/A
5:20 AM50 °FPassing clouds.3 mph82%29.95 "HgN/A
4:50 AM46 °FPassing clouds.2 mph87%29.95 "HgN/A
4:20 AM48 °FClear.5 mph82%29.98 "Hg10 mi
3:50 AM48 °FClear.3 mph82%29.95 "Hg10 mi
3:20 AM48 °FClear.3 mph82%29.98 "Hg10 mi
2:50 AM50 °FClear.5 mph82%29.98 "Hg10 mi
2:20 AM50 °FPassing clouds.5 mph82%29.98 "HgN/A
1:50 AM50 °FPassing clouds.3 mph82%29.98 "HgN/A
1:20 AM48 °FPassing clouds.3 mph82%29.98 "HgN/A
12:50 AM54 °FPassing clouds.3 mph72%29.98 "HgN/A
12:20 AM50 °FClear.No wind88%29.98 "Hg10 mi
11:50 PM
Sun, Apr 26
52 °FClear.2 mph72%29.98 "Hg10 mi
11:20 PM54 °FClear.2 mph72%29.98 "Hg10 mi
10:50 PM54 °FClear.5 mph72%29.98 "Hg10 mi
10:20 PM54 °FClear.5 mph67%29.98 "Hg10 mi
9:50 PM54 °FClear.3 mph72%29.98 "Hg10 mi
9:20 PM54 °FClear.2 mph77%29.98 "Hg10 mi
8:50 PM57 °FClear.No wind67%29.98 "Hg10 mi
8:20 PM59 °FSunny.No wind59%29.98 "Hg10 mi
7:50 PM61 °FSunny.5 mph55%29.98 "Hg10 mi
7:20 PM63 °FSunny.3 mph52%29.95 "Hg10 mi
6:50 PM66 °FSunny.7 mph43%29.95 "Hg10 mi
6:20 PM68 °FSunny.9 mph43%29.95 "Hg10 mi
5:50 PM70 °FSunny.9 mph38%29.95 "Hg10 mi
5:20 PM70 °FScattered clouds.9 mph40%29.95 "HgN/A
Weather by CustomWeather, © 2015

See weather overviewHow to use our weather pages